Temp
-9 -9 -9 -9 -9 -9 -10 -11 -11 -10 -10 -11 -11 -11 -11 -11 -11 -11 -11 -10 -11 -11 -11 -10 -10 -10 -10 -10 -10 -9 -9 -10 -10 -10 -10 -10 -11 -11 -10 -10 -10 -11 -11 -10 -10 -10 -10 -10 -10
-9 -9 -9 -9 -9 -9 -10 -11 -11 -11 -11 -11 -11 -11 -11 -11 -11 -11 -11 -11 -11 -11 -11 -10 -10 -10 -10 -10 -10 -10 -10 -10 -11 -10 -10 -11 -11 -10 -10 -11 -11 -11 -11 -11 -10 -10 -10 -10 -10
-9 -9 -9 -9 -9 -9 -10 -11 -11 -11 -11 -11 -11 -11 -11 -11 -11 -11 -11 -11 -11 -11 -11 -11 -10 -10 -10 -10 -10 -10 -10 -10 -10 -10 -11 -11 -11 -11 -11 -11 -11 -11 -11 -11 -11 -11 -11 -11 -11
-9 -9 -9 -9 -9 -9 -10 -10 -10 -11 -11 -11 -11 -11 -11 -11 -11 -11 -11 -11 -11 -11 -11 -11 -11 -11 -10 -10 -10 -10 -10 -10 -10 -10 -11 -11 -11 -11 -11 -11 -11 -11 -11 -11 -11 -11 -11 -11 -11
-9 -9 -9 -9 -9 -10 -10 -10 -10 -10 -10 -10 -11 -11 -11 -11 -11 -11 -11 -11 -11 -11 -11 -11 -11 -11 -11 -11 -11 -11 -11 -11 -11 -11 -11 -11 -11 -11 -11 -11 -11 -11 -11 -11 -11 -11 -11 -11 -11
-9 -9 -9 -9 -9 -10 -10 -10 -10 -10 -10 -10 -10 -10 -10 -11 -11 -11 -11 -11 -11 -11 -11 -11 -11 -11 -11 -11 -11 -11 -11 -11 -11 -11 -11 -11 -11 -11 -11 -11 -11 -11 -11 -11 -11 -11 -11 -11 -11
-9 -9 -9 -9 -9 -10 -10 -10 -10 -10 -10 -10 -10 -10 -10 -10 -10 -10 -11 -11 -11 -11 -11 -11 -11 -11 -10 -10 -11 -11 -11 -11 -11 -11 -11 -11 -11 -11 -11 -11 -11 -11 -11 -11 -11 -11 -11 -11 -11
-10 -10 -10 -10 -9 -9 -10 -10 -10 -10 -10 -10 -10 -10 -10 -10 -10 -10 -10 -10 -10 -10 -11 -11 -11 -11 -11 -11 -11 -11 -11 -11 -11 -11 -11 -12 -11 -11 -11 -11 -11 -12 -12 -11 -11 -11 -11 -11 -11
-9 -9 -9 -9 -9 -9 -10 -10 -10 -10 -10 -10 -10 -10 -10 -10 -10 -10 -10 -10 -10 -10 -10 -11 -11 -11 -11 -11 -11 -11 -11 -11 -11 -11 -11 -12 -11 -11 -11 -11 -11 -12 -11 -11 -11 -11 -11 -11 -11
-9 -10 -9 -9 -10 -10 -10 -10 -10 -10 -10 -10 -10 -10 -10 -10 -10 -10 -10 -10 -10 -10 -10 -10 -10 -10 -11 -11 -11 -11 -11 -11 -11 -11 -11 -11 -11 -11 -11 -11 -12 -12 -12 -12 -12 -12 -12 -12 -12
-9 -10 -10 -10 -10 -10 -10 -10 -10 -10 -10 -10 -10 -10 -10 -10 -10 -10 -10 -10 -10 -10 -10 -10 -10 -11 -11 -11 -11 -11 -11 -11 -11 -11 -11 -11 -11 -11 -11 -11 -11 -12 -12 -12 -12 -12 -12 -12 -12
-10 -10 -10 -10 -10 -10 -10 -10 -10 -10 -10 -10 -10 -10 -10 -10 -10 -10 -10 -10 -10 -10 -10 -10 -10 -10 -11 -11 -11 -11 -11 -11 -11 -11 -11 -11 -11 -11 -11 -11 -11 -11 -11 -11 -12 -12 -12 -12 -12
-10 -10 -10 -10 -10 -10 -10 -10 -10 -10 -10 -10 -10 -10 -10 -10 -10 -10 -10 -10 -10 -10 -10 -10 -10 -10 -11 -11 -11 -11 -11 -11 -11 -11 -11 -11 -11 -11 -12 -11 -11 -11 -12 -12 -12 -12 -12 -12 -12
-10 -10 -10 -10 -10 -10 -10 -10 -10 -11 -10 -10 -10 -10 -10 -10 -10 -10 -10 -10 -10 -10 -10 -10 -10 -10 -10 -11 -10 -11 -11 -11 -11 -11 -11 -11 -11 -12 -12 -12 -12 -12 -12 -12 -12 -12 -12 -12 -12
-10 -10 -10 -10 -10 -10 -10 -10 -10 -11 -10 -10 -10 -10 -10 -10 -10 -10 -10 -10 -10 -10 -10 -10 -10 -10 -10 -10 -11 -11 -11 -11 -11 -11 -11 -11 -11 -11 -11 -11 -12 -12 -12 -12 -12 -12 -12 -12 -12
-10 -10 -10 -11 -10 -10 -10 -10 -10 -11 -10 -10 -10 -10 -10 -10 -10 -10 -10 -10 -10 -10 -10 -10 -11 -11 -11 -11 -11 -11 -11 -11 -11 -11 -11 -11 -11 -11 -11 -12 -12 -12 -12 -12 -12 -12 -12 -12 -12
-11 -10 -10 -10 -10 -10 -10 -10 -11 -10 -10 -10 -10 -10 -10 -10 -10 -10 -10 -10 -10 -10 -10 -11 -11 -11 -11 -11 -11 -11 -11 -11 -11 -11 -11 -11 -12 -12 -12 -12 -12 -12 -12 -12 -12 -12 -12 -12 -12
-11 -11 -10 -10 -10 -10 -10 -10 -10 -11 -10 -10 -10 -10 -10 -10 -11 -11 -10 -10 -10 -10 -11 -11 -11 -11 -11 -11 -11 -11 -11 -11 -11 -11 -11 -11 -11 -12 -12 -12 -12 -12 -12 -12 -12 -12 -12 -12 -12
-11 -10 -10 -10 -10 -11 -11 -10 -10 -10 -11 -11 -10 -10 -11 -11 -11 -11 -11 -11 -11 -11 -11 -11 -11 -11 -11 -11 -11 -11 -11 -11 -11 -11 -12 -12 -11 -11 -12 -12 -12 -12 -12 -12 -12 -12 -12 -12 -12
-11 -11 -11 -11 -11 -10 -10 -10 -10 -10 -10 -11 -10 -10 -11 -11 -11 -11 -11 -11 -11 -11 -11 -11 -11 -11 -11 -11 -11 -11 -11 -11 -11 -11 -12 -12 -12 -12 -12 -12 -12 -12 -12 -12 -12 -12 -12 -12 -13
-11 -11 -11 -11 -11 -10 -10 -10 -10 -10 -10 -11 -11 -11 -11 -11 -11 -11 -11 -11 -11 -11 -11 -11 -11 -11 -11 -11 -11 -11 -11 -11 -11 -11 -11 -12 -11 -12 -12 -12 -12 -12 -12 -12 -13 -13 -13 -13 -13
-11 -11 -11 -11 -11 -10 -10 -9 -10 -10 -10 -11 -11 -11 -11 -11 -11 -11 -11 -11 -11 -11 -11 -11 -11 -11 -11 -11 -11 -11 -11 -11 -11 -11 -12 -12 -12 -12 -12 -12 -12 -12 -12 -13 -13 -13 -13 -13 -13
-11 -11 -11 -11 -11 -10 -10 -10 -9 -10 -10 -11 -11 -11 -11 -11 -11 -11 -11 -11 -11 -11 -11 -11 -11 -11 -11 -11 -11 -11 -11 -11 -11 -11 -12 -12 -12 -12 -12 -12 -12 -12 -13 -13 -13 -13 -13 -13 -13
-12 -12 -12 -12 -11 -10 -10 -10 -9 -10 -10 -11 -11 -11 -11 -11 -11 -11 -11 -11 -11 -11 -11 -11 -11 -11 -11 -11 -11 -11 -11 -11 -11 -12 -12 -12 -12 -12 -12 -12 -12 -12 -12 -13 -13 -13 -13 -13 -13
-12 -12 -13 -12 -12 -11 -11 -11 -10 -10 -10 -10 -11 -11 -11 -11 -11 -11 -11 -11 -11 -11 -11 -11 -11 -11 -11 -11 -11 -11 -11 -11 -11 -11 -11 -12 -12 -12 -12 -12 -12 -12 -13 -13 -13 -13 -13 -13 -13
-14 -14 -13 -12 -12 -11 -11 -10 -10 -10 -11 -11 -11 -11 -11 -11 -11 -11 -11 -11 -11 -11 -11 -11 -11 -11 -11 -11 -11 -11 -11 -11 -12 -12 -11 -11 -12 -12 -12 -13 -13 -13 -13 -13 -13 -13 -13 -13 -13
-14 -13 -14 -14 -13 -12 -11 -10 -10 -11 -11 -11 -12 -11 -11 -11 -11 -12 -11 -11 -12 -12 -12 -12 -11 -11 -12 -12 -11 -11 -11 -11 -12 -11 -12 -12 -12 -12 -13 -13 -13 -13 -13 -13 -13 -13 -13 -13 -13
-14 -15 -15 -15 -14 -14 -12 -11 -10 -11 -12 -12 -13 -12 -12 -13 -13 -12 -12 -12 -12 -12 -12 -12 -12 -12 -12 -12 -12 -12 -12 -12 -12 -12 -12 -12 -13 -13 -13 -14 -14 -14 -14 -14 -13 -13 -13 -13 -13
-15 -15 -15 -15 -15 -15 -13 -12 -11 -12 -12 -12 -12 -13 -13 -13 -13 -13 -13 -13 -13 -13 -12 -12 -12 -12 -12 -12 -12 -12 -12 -12 -12 -12 -12 -12 -13 -14 -14 -14 -14 -14 -14 -14 -14 -14 -14 -14 -13
-15 -15 -16 -16 -15 -16 -15 -12 -12 -13 -14 -13 -13 -14 -14 -14 -14 -14 -14 -14 -13 -13 -13 -12 -12 -12 -12 -12 -12 -12 -12 -13 -13 -13 -14 -14 -14 -14 -14 -14 -14 -14 -14 -14 -14 -14 -14 -14 -14
Height
5864 5865 5865 5867 5870 5870 5866 5866 5867 5868 5869 5869 5868 5868 5868 5868 5867 5869 5867 5867 5867 5867 5867 5867 5867 5870 5869 5870 5872 5873 5873 5874 5875 5878 5879 5879 5880 5881 5881 5882 5883 5882 5883 5882 5883 5882 5882 5882 5882
5865 5866 5867 5867 5869 5869 5867 5868 5869 5870 5870 5870 5870 5870 5870 5870 5868 5868 5868 5868 5868 5869 5869 5868 5869 5870 5871 5871 5872 5873 5872 5873 5874 5875 5876 5877 5879 5880 5880 5881 5881 5881 5881 5881 5880 5881 5881 5881 5881
5865 5866 5868 5868 5869 5869 5869 5870 5870 5871 5870 5871 5871 5871 5872 5871 5870 5870 5870 5870 5870 5870 5870 5871 5871 5871 5872 5873 5874 5873 5873 5874 5874 5875 5876 5876 5877 5878 5879 5880 5880 5880 5880 5880 5879 5879 5880 5880 5879
5864 5867 5869 5869 5869 5869 5871 5870 5871 5872 5872 5872 5872 5873 5874 5873 5872 5872 5872 5872 5872 5872 5871 5872 5873 5873 5873 5874 5874 5873 5874 5874 5874 5875 5875 5877 5877 5878 5879 5879 5879 5879 5879 5878 5878 5879 5878 5878 5878
5865 5867 5868 5868 5868 5869 5871 5872 5872 5873 5873 5873 5874 5874 5874 5874 5874 5873 5873 5874 5873 5873 5874 5874 5875 5875 5875 5875 5875 5875 5876 5875 5875 5876 5877 5877 5878 5878 5878 5878 5878 5878 5878 5878 5877 5878 5877 5877 5877
5865 5867 5867 5869 5869 5869 5871 5873 5874 5874 5874 5874 5875 5874 5875 5875 5875 5874 5874 5874 5874 5874 5874 5875 5875 5876 5876 5876 5876 5877 5876 5876 5876 5877 5877 5877 5878 5877 5877 5878 5878 5877 5877 5876 5876 5876 5876 5875 5875
5865 5866 5868 5869 5870 5869 5872 5873 5875 5876 5875 5875 5875 5875 5876 5875 5875 5875 5874 5875 5875 5875 5875 5876 5877 5877 5877 5877 5877 5877 5877 5877 5877 5878 5878 5877 5878 5877 5877 5876 5876 5876 5875 5875 5875 5874 5874 5874 5873
5864 5866 5867 5869 5870 5870 5872 5873 5875 5877 5877 5876 5876 5876 5876 5876 5876 5875 5875 5875 5875 5875 5876 5876 5877 5877 5878 5878 5878 5877 5878 5877 5878 5878 5877 5877 5877 5876 5875 5875 5875 5875 5875 5874 5874 5873 5873 5873 5872
5863 5865 5866 5868 5871 5870 5872 5873 5874 5876 5877 5877 5877 5877 5876 5876 5876 5876 5876 5876 5876 5876 5876 5876 5877 5877 5877 5877 5877 5877 5877 5877 5877 5877 5877 5877 5876 5875 5874 5874 5874 5874 5873 5873 5872 5872 5871 5871 5870
5861 5863 5864 5868 5870 5870 5871 5873 5874 5876 5876 5877 5877 5877 5876 5876 5876 5876 5877 5876 5877 5877 5876 5876 5876 5876 5876 5877 5877 5877 5876 5876 5876 5876 5875 5875 5875 5874 5874 5874 5873 5872 5872 5871 5871 5870 5869 5869 5867
5859 5861 5862 5865 5866 5869 5870 5872 5872 5874 5875 5876 5876 5876 5876 5876 5876 5876 5876 5877 5876 5876 5876 5876 5875 5876 5875 5875 5875 5875 5875 5874 5874 5874 5873 5873 5873 5873 5872 5872 5871 5870 5870 5869 5868 5867 5866 5866 5864
5856 5856 5859 5862 5862 5865 5868 5869 5871 5872 5874 5875 5875 5875 5875 5875 5876 5876 5876 5876 5877 5876 5876 5875 5875 5875 5874 5873 5873 5873 5873 5873 5872 5872 5871 5870 5870 5870 5870 5869 5868 5868 5867 5866 5865 5864 5863 5862 5861
5851 5854 5856 5858 5859 5862 5864 5867 5869 5869 5871 5872 5874 5874 5874 5874 5875 5876 5876 5876 5876 5876 5875 5874 5873 5873 5872 5871 5871 5870 5870 5870 5869 5870 5869 5868 5867 5867 5866 5866 5865 5864 5863 5862 5861 5860 5858 5857 5857
5848 5850 5851 5854 5856 5858 5860 5863 5867 5864 5867 5870 5870 5872 5873 5873 5874 5874 5875 5875 5875 5874 5873 5873 5873 5871 5870 5869 5868 5867 5866 5866 5866 5865 5865 5865 5864 5862 5862 5862 5861 5860 5859 5858 5856 5854 5853 5852 5851
5843 5845 5847 5850 5851 5854 5855 5860 5863 5862 5865 5866 5867 5868 5871 5871 5873 5872 5873 5873 5874 5873 5873 5872 5871 5870 5868 5867 5866 5864 5863 5861 5861 5861 5861 5860 5860 5858 5857 5857 5857 5856 5854 5852 5851 5850 5848 5847 5846
5838 5840 5843 5845 5846 5848 5851 5857 5856 5858 5861 5862 5864 5865 5866 5868 5870 5870 5870 5870 5871 5871 5870 5870 5868 5867 5866 5864 5863 5861 5859 5858 5855 5855 5855 5855 5854 5854 5852 5852 5851 5850 5849 5847 5846 5845 5843 5841 5840
5833 5836 5836 5838 5840 5843 5846 5852 5852 5853 5855 5858 5860 5861 5863 5864 5865 5866 5868 5867 5867 5867 5867 5866 5865 5863 5862 5861 5859 5858 5854 5853 5851 5849 5849 5847 5847 5847 5846 5845 5844 5843 5842 5841 5840 5839 5837 5835 5833
5828 5828 5830 5833 5836 5837 5840 5846 5847 5849 5851 5854 5856 5857 5858 5860 5860 5861 5862 5863 5863 5862 5862 5861 5860 5859 5857 5856 5854 5853 5850 5847 5846 5844 5841 5840 5840 5840 5839 5837 5836 5836 5835 5834 5833 5832 5830 5829 5828
5820 5823 5825 5826 5831 5832 5834 5839 5841 5844 5847 5849 5851 5852 5853 5855 5855 5856 5857 5857 5858 5858 5857 5856 5855 5854 5852 5851 5849 5847 5846 5843 5841 5837 5836 5834 5832 5833 5833 5832 5829 5829 5828 5827 5826 5824 5823 5822 5820
5814 5817 5820 5821 5823 5826 5828 5831 5835 5838 5842 5844 5846 5848 5848 5849 5848 5849 5852 5852 5851 5851 5851 5850 5850 5848 5846 5845 5844 5842 5840 5838 5835 5833 5830 5828 5827 5826 5826 5826 5823 5821 5820 5820 5818 5817 5815 5813 5812
5808 5810 5813 5816 5816 5819 5822 5824 5830 5833 5836 5838 5840 5841 5842 5842 5842 5843 5845 5846 5846 5845 5843 5844 5843 5842 5841 5839 5838 5836 5835 5833 5830 5826 5824 5822 5819 5819 5819 5819 5817 5815 5813 5812 5811 5808 5806 5804 5802
5801 5803 5805 5807 5811 5812 5816 5813 5825 5828 5829 5832 5834 5834 5834 5835 5837 5837 5837 5838 5839 5839 5837 5836 5836 5836 5834 5832 5831 5829 5828 5826 5823 5821 5817 5814 5812 5810 5809 5810 5810 5807 5805 5804 5802 5799 5796 5795 5793
5792 5794 5797 5799 5802 5805 5809 5807 5817 5822 5823 5825 5826 5826 5829 5829 5829 5829 5829 5829 5831 5831 5830 5828 5827 5827 5827 5825 5824 5822 5820 5818 5816 5814 5811 5809 5804 5802 5801 5799 5798 5797 5795 5794 5793 5789 5786 5783 5782
5784 5785 5787 5790 5794 5797 5801 5805 5800 5814 5815 5817 5819 5820 5820 5820 5821 5821 5821 5821 5821 5821 5820 5820 5819 5818 5817 5816 5815 5814 5812 5810 5808 5806 5804 5802 5799 5795 5792 5790 5788 5786 5785 5783 5781 5779 5776 5773 5769
5773 5775 5777 5782 5784 5789 5791 5796 5797 5796 5806 5807 5809 5809 5810 5811 5810 5810 5811 5811 5811 5810 5810 5809 5808 5808 5807 5808 5806 5804 5803 5801 5799 5797 5795 5793 5790 5787 5783 5779 5778 5776 5774 5772 5770 5768 5764 5761 5758
5762 5765 5768 5769 5772 5778 5780 5785 5791 5788 5791 5796 5798 5796 5797 5800 5800 5799 5800 5799 5799 5799 5799 5798 5797 5797 5796 5797 5796 5794 5793 5790 5789 5788 5786 5783 5780 5776 5772 5769 5766 5764 5762 5760 5757 5755 5752 5749 5747
5751 5754 5759 5757 5761 5763 5769 5779 5781 5782 5778 5778 5782 5784 5785 5785 5785 5786 5787 5787 5786 5786 5787 5787 5785 5784 5784 5783 5783 5782 5780 5779 5779 5777 5774 5771 5769 5765 5761 5757 5754 5751 5748 5746 5744 5742 5740 5737 5735
5739 5745 5744 5746 5748 5750 5757 5764 5773 5771 5772 5769 5769 5766 5767 5769 5771 5771 5772 5772 5772 5773 5774 5773 5772 5771 5771 5770 5769 5768 5767 5767 5767 5765 5762 5759 5755 5752 5748 5745 5741 5739 5736 5733 5731 5729 5727 5724 5722
5730 5731 5733 5736 5738 5739 5745 5752 5759 5759 5759 5758 5755 5754 5753 5751 5752 5755 5758 5758 5759 5759 5758 5758 5758 5758 5757 5757 5755 5753 5753 5754 5753 5752 5749 5746 5742 5738 5734 5730 5727 5725 5723 5720 5718 5717 5714 5711 5708
5715 5718 5720 5722 5727 5729 5733 5740 5748 5746 5744 5743 5742 5741 5740 5739 5739 5737 5737 5738 5741 5743 5744 5744 5744 5742 5740 5740 5741 5742 5741 5739 5737 5736 5733 5731 5727 5723 5719 5715 5711 5709 5707 5706 5704 5702 5700 5697 5694
Wind_Speed
14 14 12 10 8 6 13 14 13 13 12 11 12 12 12 11 11 12 12 13 13 13 13 14 14 9 9 6 6 10 11 9 10 11 11 7 7 8 9 10 9 8 8 9 7 6 8 7 7
15 13 11 9 6 9 14 13 11 10 11 12 12 11 11 11 12 12 12 11 11 12 13 14 13 12 12 8 3 3 2 3 3 5 7 7 9 9 9 8 6 8 7 5 5 5 5 5 4
14 13 11 9 9 12 13 9 10 9 11 10 10 12 12 12 13 14 14 15 16 14 14 13 12 10 10 9 9 9 8 6 4 3 1 3 3 1 1 1 2 4 4 3 4 5 5 7 7
13 11 9 9 9 10 10 6 6 6 9 11 9 9 9 9 11 12 13 13 14 14 15 15 15 13 10 8 8 9 9 10 11 7 4 2 0 2 1 1 2 3 3 3 4 4 3 4 4
13 11 10 9 9 10 8 6 5 4 5 7 8 9 10 9 8 8 9 10 10 12 13 13 13 13 13 12 10 8 7 8 8 6 5 4 3 2 2 2 2 2 3 4 4 4 4 5 5
13 10 8 7 8 8 6 5 4 3 4 3 4 6 7 9 9 9 7 7 7 8 9 10 11 11 11 11 11 9 8 6 5 3 2 2 2 2 2 3 4 4 5 6 6 7 7 8 8
10 10 7 3 4 7 4 3 3 4 2 3 4 3 4 6 7 8 8 8 5 5 6 7 7 7 7 8 8 7 7 6 5 3 2 2 2 3 4 5 6 7 7 8 8 8 8 6 5
11 9 8 7 4 5 3 2 0 1 1 3 3 2 3 3 4 5 6 7 7 7 6 7 7 8 7 7 6 6 6 5 4 3 3 4 5 5 5 5 5 5 4 5 5 6 6 6 7
12 10 10 8 7 5 4 2 2 2 2 2 2 3 3 3 3 3 4 5 6 7 7 8 8 8 9 9 8 8 7 6 6 5 5 6 6 7 7 8 8 8 8 8 8 9 9 10 11
14 13 13 8 8 10 8 6 5 3 5 3 3 1 5 3 3 3 4 5 6 5 7 8 8 9 10 10 9 9 9 9 8 8 8 8 7 8 9 9 9 10 10 11 12 13 14 14 15
16 18 15 12 12 11 11 8 8 7 5 6 5 4 4 3 2 2 3 4 4 5 6 7 8 9 10 11 10 10 11 11 10 10 10 11 9 9 10 11 12 13 13 14 15 16 16 17 18
20 24 19 17 17 14 14 14 11 11 8 8 6 7 4 4 3 3 3 4 5 7 7 8 10 11 12 13 13 12 12 12 12 12 13 14 12 11 12 12 14 15 17 18 19 20 20 20 20
24 25 23 22 22 19 18 18 13 15 13 9 9 8 7 6 5 4 2 3 5 7 9 9 10 11 12 14 15 16 16 14 14 12 14 15 16 15 16 16 17 17 19 20 21 22 22 22 21
24 25 27 27 25 23 21 21 15 22 16 9 12 7 8 9 6 7 4 3 3 7 9 9 11 13 13 14 14 15 17 18 17 17 16 16 17 19 20 20 20 21 20 20 20 21 21 21 22
25 26 27 26 27 25 26 23 20 24 19 15 13 11 9 12 9 10 8 6 5 8 8 11 12 13 14 15 15 18 16 18 19 19 20 21 20 21 21 22 21 21 22 22 21 21 23 23 23
29 27 27 27 29 28 29 23 25 26 22 20 16 14 12 11 12 13 12 10 8 10 11 12 15 16 15 16 16 19 19 18 20 20 21 22 24 24 24 25 25 25 25 25 25 24 24 26 27
29 27 29 30 30 28 30 26 28 27 25 22 19 16 16 14 13 14 13 13 13 13 14 14 16 17 17 17 19 20 23 20 20 21 21 23 24 25 27 27 27 29 29 29 28 27 28 29 30
30 31 31 31 30 30 30 27 29 28 27 25 21 19 19 18 18 18 18 16 15 17 16 17 17 18 19 19 21 21 23 24 23 22 24 24 24 26 26 29 30 31 31 32 31 31 32 33 34
32 32 30 32 29 30 29 29 29 30 28 26 23 22 21 20 23 21 21 20 19 18 19 18 18 19 21 20 21 23 24 24 26 26 25 26 27 27 27 28 31 32 33 33 33 35 36 36 36
33 32 32 33 32 31 31 29 29 29 28 26 25 24 23 24 25 26 23 21 22 22 22 21 21 22 23 22 23 23 24 25 26 27 29 31 31 30 28 28 31 33 34 34 35 36 38 38 37
34 34 35 34 35 33 31 31 28 27 27 26 26 26 26 28 28 28 27 25 24 25 27 25 25 25 25 25 26 25 26 26 27 28 29 33 35 35 33 32 34 36 37 37 37 38 39 41 41
36 37 36 37 36 37 35 36 29 28 29 27 27 28 29 30 29 29 30 29 27 27 29 31 30 29 27 29 30 29 28 29 29 30 30 32 35 37 38 36 36 37 38 39 40 42 43 43 46
38 39 40 39 39 39 38 40 28 28 30 28 29 30 28 31 32 33 34 34 32 32 33 34 34 32 32 34 34 33 34 33 31 31 32 33 36 38 39 39 39 40 42 43 44 46 48 48 49
41 41 43 43 42 42 41 40 42 30 31 31 31 32 33 35 35 37 38 38 38 38 38 38 39 38 37 38 38 37 38 37 34 31 31 34 37 40 41 42 43 43 43 43 44 46 49 51 52
45 45 45 45 46 44 45 43 44 44 36 36 35 35 37 39 42 42 42 42 42 43 43 43 41 42 41 40 42 42 41 41 39 38 36 34 37 41 44 44 45 45 46 46 47 49 49 50 50
45 46 48 49 50 49 49 48 44 47 45 41 41 44 44 42 43 44 44 46 47 47 47 47 47 45 45 44 44 45 45 45 44 42 38 40 40 42 46 50 50 49 50 51 50 51 51 51 49
48 51 47 49 52 54 55 50 50 48 50 50 48 47 46 48 49 48 49 50 49 48 48 49 50 50 49 49 48 47 48 48 47 47 44 40 41 44 46 49 52 53 52 51 51 51 52 52 52
48 46 48 50 53 55 56 55 50 51 49 51 50 53 53 51 50 50 49 50 51 51 51 53 54 54 54 53 53 52 52 51 49 48 47 45 45 46 49 49 51 51 51 51 50 50 50 50 52
43 44 47 49 50 52 52 52 51 51 52 53 55 55 56 56 54 52 50 51 50 50 52 54 55 57 57 58 58 59 57 54 50 48 47 49 50 48 51 55 56 57 55 55 54 54 54 55 55
42 43 44 45 46 49 52 54 50 48 50 51 53 54 55 56 56 56 57 56 54 53 54 56 57 58 59 60 59 56 54 53 51 51 53 53 51 51 53 55 58 60 59 59 58 57 55 55 55
Wind_Direction
140 135 133 132 118 145 80 75 64 55 50 46 44 54 63 62 71 79 81 80 81 83 82 91 82 89 97 127 174 199 195 192 202 213 227 247 238 251 264 277 294 291 297 294 291 295 299 299 304
143 134 131 122 120 101 80 78 67 58 56 53 53 51 56 59 60 65 69 73 73 83 87 80 82 81 76 77 91 145 128 198 245 271 277 254 262 261 276 280 277 290 291 286 296 306 310 307 306
138 136 138 129 114 90 90 84 77 67 57 50 50 56 54 60 65 68 70 70 74 70 76 81 86 81 83 81 80 87 98 109 113 110 145 186 190 157 227 275 283 278 275 286 279 283 284 279 279
141 144 140 111 111 97 86 76 72 64 64 55 53 52 53 55 62 65 64 64 69 69 68 72 77 83 89 82 70 63 62 69 73 66 55 61 34 348 309 292 274 296 299 296 297 296 296 293 307
149 150 149 139 119 107 92 75 59 37 51 65 60 59 58 53 53 56 60 57 55 61 64 66 68 71 74 77 79 73 61 55 53 59 69 64 60 72 48 356 341 327 312 308 315 300 303 301 292
155 165 145 146 130 117 100 89 66 47 16 47 61 46 46 50 50 57 52 59 48 47 53 55 55 58 59 63 69 69 69 71 64 47 44 27 8 2 351 318 308 305 299 299 295 299 298 296 296
170 172 150 189 135 124 122 99 67 55 21 27 45 35 40 39 36 40 39 51 42 28 29 35 36 44 48 54 54 55 51 50 52 42 16 9 291 273 272 277 283 289 288 286 290 292 292 297 306
182 186 182 185 182 138 148 126 194 80 27 30 44 347 19 15 27 34 36 22 23 26 22 20 10 11 15 14 23 27 17 16 4 339 325 307 303 308 309 305 305 301 298 306 304 304 301 299 292
200 207 210 198 213 189 182 193 240 263 273 323 2 13 1 350 6 9 28 25 21 4 1 359 1 356 357 357 351 345 342 339 334 325 305 288 294 295 294 295 294 289 285 283 287 289 289 289 291
220 222 229 229 211 224 209 218 243 268 269 276 298 346 322 346 354 13 28 36 27 20 2 355 350 342 339 338 337 334 330 320 316 310 309 298 293 286 283 281 281 279 278 281 287 291 292 295 293
229 234 237 238 234 225 240 222 247 255 261 252 271 272 289 308 324 357 16 32 24 13 7 347 345 334 328 327 326 323 318 318 310 306 302 295 295 294 291 290 289 289 287 286 288 288 290 293 295
231 239 241 234 240 237 236 239 236 255 249 246 256 277 250 269 292 309 345 352 14 4 1 348 343 331 325 321 318 312 309 307 305 304 302 296 291 290 291 294 294 292 289 288 288 287 289 288 292
233 240 243 238 243 240 238 243 239 251 252 250 245 259 258 251 254 266 292 345 350 8 1 359 351 345 336 322 317 312 309 301 296 293 290 294 293 287 287 288 290 292 293 293 291 291 290 290 290
238 240 240 239 241 241 239 241 237 245 251 245 250 241 254 259 258 250 269 286 327 347 355 356 357 353 349 343 334 322 311 305 298 290 284 281 282 287 288 289 291 293 293 294 295 296 295 293 294
235 240 240 241 240 241 241 240 232 249 253 249 250 253 239 260 251 257 260 275 302 318 332 330 334 337 338 344 348 337 328 313 301 293 285 281 279 281 283 285 288 291 292 292 294 295 298 299 298
234 236 241 241 241 238 242 236 235 244 244 253 253 252 258 249 258 258 263 272 285 301 310 316 319 321 325 328 333 332 327 320 310 300 291 285 281 280 282 283 286 287 288 290 292 293 295 297 299
238 238 241 240 242 242 243 236 239 238 243 246 252 253 250 257 258 261 265 273 287 293 302 306 309 312 316 324 322 324 322 316 307 304 299 291 287 283 282 281 282 283 284 285 288 289 291 293 295
243 241 242 244 241 242 243 239 240 241 244 246 248 250 249 250 257 266 271 277 286 294 298 302 304 305 312 318 321 327 327 313 310 298 295 293 288 285 282 281 279 278 280 283 286 287 285 286 290
241 245 244 248 246 245 244 241 240 243 244 245 248 250 250 249 252 262 269 279 285 288 295 297 298 299 307 310 315 321 326 327 317 298 290 286 284 281 278 278 279 280 281 282 283 284 286 288 289
247 248 246 247 246 245 244 242 240 243 246 246 246 251 252 251 256 261 265 274 284 289 290 292 295 296 300 303 307 315 319 319 317 307 287 285 282 282 281 279 277 278 278 279 283 285 288 288 288
247 249 250 248 248 249 247 247 242 243 244 247 249 247 250 247 251 260 267 272 278 283 284 291 294 295 295 297 300 306 310 313 311 302 296 287 290 286 282 279 278 279 280 282 283 284 285 286 288
251 251 251 251 250 252 253 256 240 244 248 248 250 249 246 247 250 258 264 268 271 276 282 287 290 293 290 293 296 298 304 308 303 300 293 288 288 287 285 284 283 281 281 281 281 283 284 284 286
250 251 252 251 252 252 252 262 251 247 250 251 249 248 250 252 254 256 261 269 272 273 278 282 286 287 286 290 292 295 298 302 307 299 294 288 286 286 286 284 280 280 279 281 283 283 284 286 286
251 252 252 253 253 254 257 258 266 254 253 250 251 253 250 251 254 258 263 268 273 276 277 277 279 281 284 286 288 291 293 296 300 299 299 294 287 285 283 281 280 280 281 282 282 283 284 284 286
248 249 252 253 255 257 258 257 265 269 263 261 258 257 253 251 255 257 259 262 265 269 272 274 275 277 278 280 285 286 288 289 292 294 295 290 287 281 281 280 280 280 280 279 280 282 283 283 284
247 248 250 253 254 254 255 260 261 267 268 265 264 266 264 258 255 257 261 262 265 267 269 272 275 276 276 277 279 281 284 286 288 289 291 293 287 281 278 277 277 277 278 280 281 282 282 283 284
247 249 251 253 255 256 256 257 261 264 270 271 272 269 267 267 266 264 263 264 267 268 270 272 272 273 275 278 278 278 279 281 282 286 288 291 288 286 279 276 275 274 275 276 277 279 281 283 284
249 249 249 250 254 256 259 259 258 264 265 268 271 271 270 269 270 269 269 268 268 268 268 269 271 274 275 277 278 277 276 278 280 282 284 288 290 286 281 276 275 274 274 274 274 275 278 280 281
250 253 255 257 257 260 261 258 259 259 262 263 266 269 272 275 275 272 268 267 267 266 266 266 268 270 271 272 273 276 279 280 279 280 284 286 287 283 281 280 278 275 274 275 276 277 277 276 276
253 255 257 257 259 260 262 257 256 264 268 265 266 271 275 279 280 280 278 275 271 269 270 269 268 268 268 269 272 275 277 280 282 284 285 284 280 278 277 277 277 279 281 281 281 281 279 277 276